When you browse on this site, cookies collect data to enhance your experience and personalize the content and advertising you see.
Visit our Privacy Policy to learn more. By continuing to use the site, you agree to this use of cookies and data.
  • In Hungary
  • List of Countries
  • For 7 days
  • Water Temperature
  • Satellite Maps
  • Weather Map
  • News
  • Weather Widgets
  • user-avatar
    Login

    Hourly Weather Spring Garden

    Today, 21 March, Thursday

    Time Temperature Precipitation Wind Pressure Humidity
    00:00 +2°C° 0.2 mm 0 mps 644 mmHg 97%
    01:00 +1°C° 0.2 mm 0 mps 644 mmHg 96%
    02:00 +1°C° 0.1 mm 0 mps 644 mmHg 96%
    03:00 +1°C° 0.1 mm 0 mps 644 mmHg 95%
    04:00 0°C° 0.1 mm 0 mps 644 mmHg 95%
    05:00 +1°C° 0 mm 0 mps 644 mmHg 93%
    06:00 +1°C° 0 mm 0 mps 644 mmHg 92%
    07:00 +1°C° 0 mm 0 mps 645 mmHg 90%
    08:00 +3°C° 0 mm 0 mps 645 mmHg 83%
    09:00 +6°C° 0 mm 1 mps 646 mmHg 77%
    10:00 +8°C° 0 mm 1 mps 646 mmHg 70%
    11:00 +8°C° 0 mm 1 mps 646 mmHg 70%
    12:00 +8°C° 0 mm 2 mps 646 mmHg 69%
    13:00 +9°C° 0 mm 2 mps 645 mmHg 69%
    14:00 +8°C° 0.1 mm 2 mps 645 mmHg 73%
    15:00 +7°C° 0.1 mm 2 mps 645 mmHg 77%
    16:00 +7°C° 0.1 mm 2 mps 644 mmHg 81%
    17:00 +5°C° 0.1 mm 2 mps 644 mmHg 86%
    18:00 +5°C° 0.1 mm 1 mps 644 mmHg 92%
    19:00 +4°C° 0.1 mm 1 mps 644 mmHg 97%
    20:00 +3°C° 0 mm 1 mps 645 mmHg 97%
    21:00 +2°C° 0 mm 1 mps 645 mmHg 97%
    22:00 +1°C° 0 mm 1 mps 645 mmHg 98%
    23:00 +1°C° 0 mm 1 mps 645 mmHg 98%

    Tomorrow, 22 March, Friday

    Time Temperature Precipitation Wind Pressure Humidity
    00:00 +1°C° 0 mm 1 mps 645 mmHg 98%
    01:00 +1°C° 0 mm 1 mps 645 mmHg 98%
    02:00 +1°C° 0 mm 1 mps 645 mmHg 98%
    03:00 +1°C° 0 mm 1 mps 646 mmHg 97%
    04:00 +1°C° 0 mm 1 mps 646 mmHg 97%
    05:00 +1°C° 0 mm 1 mps 646 mmHg 95%
    06:00 +1°C° 0 mm 1 mps 646 mmHg 94%
    07:00 +1°C° 0 mm 1 mps 646 mmHg 92%
    08:00 +3°C° 0 mm 1 mps 647 mmHg 83%
    09:00 +5°C° 0 mm 2 mps 647 mmHg 74%
    10:00 +7°C° 0 mm 2 mps 648 mmHg 65%
    11:00 +7°C° 0 mm 2 mps 647 mmHg 66%
    12:00 +7°C° 0 mm 3 mps 647 mmHg 67%
    13:00 +7°C° 0 mm 3 mps 647 mmHg 68%
    14:00 +5°C° 0.2 mm 3 mps 646 mmHg 73%
    15:00 +5°C° 0.2 mm 3 mps 646 mmHg 77%
    16:00 +5°C° 0.2 mm 2 mps 646 mmHg 82%
    17:00 +4°C° 0.6 mm 2 mps 646 mmHg 86%
    18:00 +4°C° 0.6 mm 1 mps 646 mmHg 91%
    19:00 +3°C° 0.6 mm 1 mps 646 mmHg 96%
    20:00 +3°C° 0.3 mm 1 mps 646 mmHg 96%
    21:00 +3°C° 0.3 mm 1 mps 646 mmHg 96%
    22:00 +3°C° 0.3 mm 1 mps 646 mmHg 96%
    23:00 +3°C° 1.1 mm 1 mps 646 mmHg 96%

    Day after tomorrow, 23 March, Saturday

    Time Temperature Precipitation Wind Pressure Humidity
    00:00 +3°C° 1.1 mm 1 mps 646 mmHg 96%
    01:00 +3°C° 1.1 mm 1 mps 646 mmHg 97%
    02:00 +3°C° 0.8 mm 1 mps 646 mmHg 97%
    03:00 +3°C° 0.8 mm 1 mps 646 mmHg 97%
    04:00 +3°C° 0.8 mm 1 mps 646 mmHg 97%
    05:00 +3°C° 0.3 mm 1 mps 646 mmHg 97%
    06:00 +3°C° 0.3 mm 1 mps 646 mmHg 96%
    07:00 +3°C° 0.3 mm 1 mps 646 mmHg 96%
    08:00 +4°C° 0 mm 1 mps 647 mmHg 92%
    09:00 +5°C° 0 mm 1 mps 647 mmHg 88%
    10:00 +6°C° 0 mm 1 mps 647 mmHg 83%
    11:00 +6°C° 0.1 mm 1 mps 647 mmHg 81%
    12:00 +6°C° 0.1 mm 2 mps 647 mmHg 79%
    13:00 +6°C° 0.1 mm 2 mps 647 mmHg 77%
    14:00 +6°C° 0.2 mm 2 mps 647 mmHg 78%
    15:00 +6°C° 0.2 mm 2 mps 646 mmHg 80%
    16:00 +5°C° 0.2 mm 2 mps 646 mmHg 81%
    17:00 +3°C° 0.1 mm 2 mps 646 mmHg 86%
    18:00 +3°C° 0.1 mm 1 mps 646 mmHg 91%
    19:00 +1°C° 0.1 mm 1 mps 645 mmHg 96%
    20:00 0°C° 0 mm 1 mps 646 mmHg 96%
    21:00 -1°C° 0 mm 1 mps 646 mmHg 97%
    22:00 -1°C° 0 mm 1 mps 646 mmHg 97%
    23:00 -1°C° 0 mm 1 mps 646 mmHg 97%

    24 March, Sunday

    Time Temperature Precipitation Wind Pressure Humidity
    00:00 -2°C° 0 mm 1 mps 646 mmHg 96%
    01:00 -2°C° 0 mm 1 mps 646 mmHg 96%
    02:00 -2°C° 0 mm 1 mps 646 mmHg 95%
    03:00 -2°C° 0 mm 1 mps 646 mmHg 95%
    04:00 -2°C° 0 mm 1 mps 646 mmHg 94%
    05:00 -2°C° 0 mm 1 mps 646 mmHg 91%
    06:00 -1°C° 0 mm 1 mps 646 mmHg 88%
    07:00 0°C° 0 mm 1 mps 646 mmHg 85%
    08:00 +2°C° 0 mm 1 mps 647 mmHg 77%
    09:00 +5°C° 0 mm 1 mps 647 mmHg 69%
    10:00 +8°C° 0 mm 1 mps 648 mmHg 60%
    11:00 +7°C° 0 mm 2 mps 648 mmHg 59%
    12:00 +8°C° 0 mm 2 mps 648 mmHg 58%
    13:00 +8°C° 0 mm 3 mps 647 mmHg 57%
    14:00 +8°C° 0 mm 3 mps 647 mmHg 59%
    15:00 +7°C° 0 mm 3 mps 647 mmHg 61%
    16:00 +6°C° 0 mm 4 mps 646 mmHg 63%
    17:00 +4°C° 0 mm 3 mps 646 mmHg 73%
    18:00 +3°C° 0 mm 2 mps 645 mmHg 83%
    19:00 +2°C° 0 mm 1 mps 645 mmHg 92%
    20:00 +1°C° 0 mm 1 mps 645 mmHg 93%
    21:00 +1°C° 0 mm 1 mps 645 mmHg 94%
    22:00 -2°C° 0 mm 2 mps 645 mmHg 94%
    23:00 -1°C° 0.1 mm 2 mps 644 mmHg 92%

    25 March, Monday

    Time Temperature Precipitation Wind Pressure Humidity
    00:00 +1°C° 0.1 mm 2 mps 644 mmHg 90%
    01:00 +2°C° 0.1 mm 2 mps 644 mmHg 88%
    02:00 +1°C° 0.3 mm 3 mps 643 mmHg 89%
    03:00 +1°C° 0.3 mm 3 mps 643 mmHg 90%
    04:00 +1°C° 0.3 mm 4 mps 642 mmHg 91%
    05:00 +2°C° 1.4 mm 3 mps 642 mmHg 91%
    06:00 +2°C° 1.4 mm 3 mps 642 mmHg 91%
    07:00 +2°C° 1.4 mm 3 mps 642 mmHg 91%
    08:00 +1°C° 3 mm 3 mps 642 mmHg 92%
    09:00 0°C° 3 mm 3 mps 643 mmHg 94%
    10:00 0°C° 3 mm 3 mps 643 mmHg 96%
    11:00 0°C° 0.6 mm 3 mps 644 mmHg 94%
    12:00 +1°C° 0.6 mm 3 mps 644 mmHg 93%
    13:00 +1°C° 0.6 mm 3 mps 645 mmHg 91%
    14:00 +1°C° 0.3 mm 3 mps 645 mmHg 91%
    15:00 +1°C° 0.3 mm 3 mps 645 mmHg 91%
    16:00 +1°C° 0.3 mm 3 mps 645 mmHg 91%
    17:00 +1°C° 0 mm 2 mps 645 mmHg 93%
    18:00 -2°C° 0 mm 2 mps 645 mmHg 95%
    19:00 -1°C° 0 mm 1 mps 645 mmHg 97%
    20:00 -2°C° 0 mm 1 mps 645 mmHg 96%
    21:00 -2°C° 0 mm 1 mps 645 mmHg 96%
    22:00 -3°C° 0 mm 1 mps 646 mmHg 96%
    23:00 -4°C° 0 mm 1 mps 645 mmHg 96%

    26 March, Tuesday

    Time Temperature Precipitation Wind Pressure Humidity
    00:00 -4°C° 0 mm 1 mps 645 mmHg 95%
    01:00 -4°C° 0 mm 1 mps 645 mmHg 95%
    02:00 -4°C° 0 mm 1 mps 644 mmHg 94%
    03:00 -4°C° 0 mm 1 mps 644 mmHg 93%
    04:00 -4°C° 0 mm 1 mps 644 mmHg 93%
    05:00 -3°C° 0 mm 1 mps 644 mmHg 92%
    06:00 -2°C° 0 mm 1 mps 644 mmHg 92%
    07:00 -1°C° 0 mm 1 mps 644 mmHg 92%
    08:00 +1°C° 0.1 mm 1 mps 645 mmHg 92%
    09:00 +3°C° 0.1 mm 1 mps 645 mmHg 92%
    10:00 +4°C° 0.1 mm 1 mps 645 mmHg 93%
    11:00 +4°C° 0.2 mm 2 mps 645 mmHg 93%
    12:00 +4°C° 0.2 mm 2 mps 644 mmHg 92%
    13:00 +3°C° 0.2 mm 3 mps 644 mmHg 92%
    14:00 +3°C° 0.2 mm 3 mps 644 mmHg 92%
    15:00 +3°C° 0.2 mm 3 mps 643 mmHg 91%
    16:00 +3°C° 0.2 mm 3 mps 643 mmHg 91%
    17:00 +3°C° 0.1 mm 2 mps 643 mmHg 93%
    18:00 +1°C° 0.1 mm 2 mps 643 mmHg 95%
    19:00 +1°C° 0.1 mm 1 mps 642 mmHg 97%
    20:00 +2°C° 0.4 mm 1 mps 643 mmHg 96%
    21:00 +1°C° 0.4 mm 2 mps 643 mmHg 96%
    22:00 +1°C° 0.4 mm 2 mps 643 mmHg 96%
    23:00 +1°C° 1.5 mm 2 mps 643 mmHg 96%
    Show more